Home > Weather > Fort Wayne > Past weeks

Flag for USA Past Weather in Fort Wayne, Indiana, USA — Yesterday and Last 2 Weeks

Now
80 °F

Mostly cloudy.


Feels Like: 82 °F
Forecast: 67 / 82 °F
Wind: No wind

Location: Fort Wayne International Airport

Current Time: Jul 30, 2016 at 3:01:30 PM

Latest Report: Jul 30, 2016 at 1:54 PM


Visibility: 10 mi

Pressure: 29.96 "Hg

Humidity: 64%

Dew Point: 67 °F

Location of Fort WayneLocation

Past Weather in Fort Wayne — Graph

°F

Fort Wayne Temperature Yesterday

Maximum temperature yesterday: 88 °F (at 2:54 PM)
Minimum temperature yesterday: 68 °F (at 6:54 AM)
Average temperature yesterday: 75 °F

High & Low Weather Summary for the Past Weeks

 TemperatureHumidityPressure
High91 °F (Jul 23, 2:54 PM)96% (Jul 23, 5:54 AM)30.26 "Hg (Jul 23, 5:54 AM)
Low55 °F (Jul 17, 4:54 AM)36% (Jul 27, 2:54 PM)29.84 "Hg (Jul 28, 4:54 PM)
Average76 °F73%30.03 "Hg
* Reported Jul 15 1:54 PM — Jul 30 1:54 PM, Fort Wayne, Weather by CustomWeather, © 2016

Note: Actual official high and low records may vary slightly from our data, if they occured in-between our weather recording intervals... More about our weather records

Advertising

Fort Wayne Weather History for the Previous 24 Hours

Scroll right to see more
 ConditionsComfort  
Time TempWeatherWind HumidityBarometerVisibility
1:54 PM
Sat, Jul 30
80 °FMostly cloudy.No wind64%29.96 "Hg10 mi
12:54 PM77 °FMore clouds than sun.3 mph71%29.96 "Hg9 mi
11:54 AM76 °FOvercast.6 mph77%29.96 "Hg8 mi
10:54 AM73 °FMore clouds than sun.No wind81%29.96 "Hg7 mi
9:54 AM70 °FFog.3 mph87%29.95 "Hg6 mi
8:54 AM69 °FFog.6 mph87%29.94 "Hg5 mi
7:54 AM68 °FFog.8 mph90%29.94 "Hg6 mi
6:54 AM70 °FFog.7 mph93%29.92 "Hg3 mi
6:04 AM70 °FFog.6 mph93%29.93 "Hg3 mi
5:54 AM70 °FFog.6 mph93%29.91 "Hg3 mi
4:54 AM69 °FFog.5 mph93%29.90 "Hg2 mi
3:54 AM70 °FFog.6 mph93%29.91 "Hg6 mi
2:54 AM71 °FFog.5 mph90%29.91 "Hg4 mi
1:54 AM70 °FFog.7 mph93%29.92 "Hg4 mi
12:54 AM69 °FFog.7 mph96%29.91 "Hg4 mi
11:54 PM
Fri, Jul 29
69 °FPassing clouds.6 mph90%29.93 "Hg8 mi
10:54 PM69 °FPassing clouds.6 mph96%29.93 "Hg8 mi
9:54 PM70 °FPartly sunny.9 mph90%29.93 "Hg10 mi
8:54 PM70 °FBroken clouds.9 mph90%29.90 "Hg10 mi
7:54 PM70 °FRain. Fog.6 mph93%29.93 "Hg3 mi
6:54 PM72 °FThunderstorms. Fog.18 mph91%29.91 "Hg3 mi
5:54 PM80 °FThunderstorms. Partly sunny.14 mph64%29.87 "Hg10 mi
4:54 PM81 °FBroken clouds.15 mph62%29.88 "Hg10 mi
3:54 PM88 °FMostly cloudy.5 mph46%29.86 "Hg10 mi
Weather by CustomWeather, © 2016

See weather overviewHow to use our weather pages